QPF
0.00 0.01 0.02 0.02 0.02 0.01 0.02 0.02 0.01 0.01 0.01 0.02 0.02 0.02 0.02 0.02 0.02 0.02 0.01 0.01 0.02 0.03 0.02 0.02 0.02 0.02 0.02 0.02 0.01 0.01 0.01 0.01 0.01 0.01 0.01 0.01 0.01 0.01 0.01 0.01 0.01 0.01 0.02
0.00 0.01 0.01 0.02 0.02 0.02 0.02 0.02 0.01 0.01 0.01 0.01 0.02 0.02 0.01 0.01 0.01 0.01 0.01 0.01 0.01 0.02 0.02 0.02 0.01 0.01 0.01 0.01 0.01 0.01 0.01 0.02 0.01 0.01 0.01 0.01 0.01 0.01 0.01 0.01 0.01 0.02 0.02
0.00 0.01 0.01 0.02 0.03 0.03 0.03 0.02 0.01 0.01 0.01 0.02 0.02 0.02 0.01 0.01 0.01 0.01 0.02 0.02 0.02 0.01 0.01 0.01 0.01 0.01 0.01 0.01 0.01 0.01 0.01 0.01 0.01 0.01 0.00 0.01 0.01 0.01 0.01 0.02 0.02 0.02 0.02
0.00 0.01 0.01 0.02 0.03 0.03 0.03 0.02 0.01 0.01 0.01 0.01 0.02 0.03 0.02 0.02 0.02 0.02 0.01 0.01 0.01 0.00 0.00 0.00 0.00 0.00 0.01 0.01 0.01 0.01 0.00 0.00 0.00 0.00 0.00 0.00 0.01 0.02 0.02 0.02 0.02 0.01 0.01
0.01 0.01 0.02 0.02 0.03 0.03 0.03 0.02 0.02 0.02 0.02 0.02 0.02 0.02 0.02 0.02 0.02 0.01 0.01 0.01 0.01 0.01 0.01 0.01 0.01 0.01 0.01 0.01 0.01 0.01 0.00 0.00 0.00 0.00 0.00 0.00 0.01 0.02 0.02 0.01 0.01 0.01 0.01
0.01 0.01 0.02 0.02 0.02 0.02 0.02 0.02 0.02 0.02 0.01 0.01 0.02 0.02 0.01 0.01 0.02 0.01 0.01 0.01 0.01 0.01 0.01 0.01 0.01 0.01 0.01 0.01 0.01 0.01 0.01 0.00 0.00 0.00 0.00 0.00 0.01 0.01 0.02 0.01 0.01 0.01 0.01
0.01 0.01 0.01 0.02 0.02 0.02 0.01 0.01 0.02 0.02 0.02 0.02 0.01 0.01 0.01 0.01 0.01 0.01 0.01 0.00 0.01 0.01 0.01 0.01 0.01 0.01 0.01 0.00 0.00 0.00 0.00 0.00 0.00 0.00 0.00 0.00 0.00 0.01 0.01 0.01 0.02 0.01 0.02
0.01 0.01 0.01 0.02 0.02 0.03 0.02 0.02 0.02 0.02 0.02 0.02 0.02 0.01 0.01 0.01 0.01 0.01 0.01 0.01 0.01 0.01 0.01 0.01 0.01 0.01 0.01 0.00 0.01 0.01 0.00 0.00 0.00 0.00 0.00 0.00 0.01 0.01 0.02 0.01 0.02 0.01 0.01
0.01 0.01 0.01 0.02 0.02 0.03 0.04 0.03 0.03 0.03 0.02 0.02 0.01 0.01 0.01 0.01 0.01 0.01 0.01 0.00 0.00 0.01 0.01 0.01 0.01 0.01 0.01 0.01 0.01 0.01 0.01 0.00 0.00 0.00 0.00 0.01 0.01 0.02 0.02 0.01 0.01 0.00 0.00
0.01 0.01 0.01 0.02 0.02 0.02 0.03 0.03 0.02 0.02 0.02 0.02 0.02 0.02 0.01 0.01 0.01 0.01 0.01 0.01 0.00 0.01 0.01 0.01 0.01 0.01 0.01 0.01 0.01 0.01 0.01 0.00 0.00 0.00 0.00 0.00 0.01 0.02 0.02 0.01 0.01 0.00 0.00
0.01 0.01 0.02 0.02 0.01 0.01 0.02 0.02 0.03 0.03 0.02 0.01 0.01 0.02 0.03 0.01 0.00 0.01 0.00 0.00 0.01 0.01 0.01 0.01 0.01 0.01 0.01 0.00 0.00 0.00 0.00 0.00 0.00 0.00 0.00 0.00 0.01 0.01 0.01 0.01 0.00 0.00 0.01
0.01 0.01 0.02 0.03 0.02 0.02 0.01 0.02 0.03 0.03 0.02 0.01 0.01 0.01 0.02 0.01 0.01 0.01 0.01 0.01 0.01 0.01 0.01 0.01 0.01 0.01 0.01 0.00 0.00 0.00 0.00 0.00 0.00 0.00 0.00 0.00 0.00 0.00 0.01 0.01 0.01 0.01 0.01
0.01 0.01 0.02 0.02 0.03 0.03 0.02 0.02 0.02 0.03 0.03 0.02 0.01 0.00 0.01 0.01 0.01 0.01 0.00 0.01 0.01 0.01 0.01 0.01 0.01 0.01 0.01 0.01 0.01 0.01 0.01 0.01 0.00 0.00 0.00 0.00 0.00 0.00 0.01 0.01 0.01 0.01 0.02
0.01 0.01 0.01 0.02 0.02 0.03 0.02 0.02 0.01 0.02 0.03 0.03 0.02 0.01 0.01 0.01 0.01 0.01 0.01 0.01 0.01 0.01 0.01 0.02 0.02 0.01 0.01 0.01 0.01 0.01 0.01 0.01 0.01 0.00 0.00 0.00 0.00 0.01 0.01 0.01 0.01 0.02 0.03
0.01 0.01 0.01 0.02 0.02 0.02 0.02 0.02 0.02 0.02 0.02 0.03 0.03 0.02 0.02 0.02 0.01 0.01 0.01 0.01 0.01 0.01 0.01 0.00 0.00 0.01 0.00 0.00 0.00 0.00 0.00 0.00 0.00 0.00 0.00 0.00 0.00 0.00 0.01 0.01 0.02 0.03 0.03
0.01 0.01 0.01 0.02 0.02 0.02 0.03 0.03 0.02 0.01 0.01 0.01 0.02 0.01 0.01 0.01 0.01 0.01 0.01 0.01 0.00 0.00 0.00 0.00 0.00 0.00 0.00 0.00 0.00 0.00 0.00 0.00 0.00 0.00 0.00 0.00 0.00 0.00 0.00 0.01 0.01 0.02 0.03
0.01 0.02 0.02 0.02 0.02 0.02 0.03 0.03 0.03 0.02 0.01 0.01 0.01 0.01 0.00 0.00 0.00 0.00 0.00 0.00 0.00 0.00 0.00 0.00 0.00 0.00 0.00 0.00 0.00 0.00 0.00 0.00 0.00 0.00 0.00 0.00 0.00 0.00 0.00 0.01 0.01 0.01 0.02
0.01 0.01 0.02 0.02 0.01 0.02 0.02 0.03 0.02 0.01 0.01 0.01 0.00 0.00 0.00 0.00 0.00 0.00 0.00 0.00 0.00 0.00 0.00 0.00 0.00 0.00 0.00 0.00 0.00 0.00 0.00 0.00 0.00 0.00 0.00 0.00 0.00 0.00 0.00 0.01 0.01 0.01 0.01
0.01 0.01 0.01 0.01 0.01 0.02 0.02 0.02 0.02 0.01 0.01 0.00 0.00 0.00 0.00 0.00 0.00 0.00 0.00 0.00 0.00 0.00 0.00 0.00 0.00 0.00 0.00 0.00 0.00 0.00 0.00 0.01 0.01 0.01 0.01 0.01 0.01 0.01 0.01 0.01 0.01 0.01 0.01
0.02 0.02 0.02 0.02 0.01 0.01 0.01 0.01 0.01 0.00 0.00 0.00 0.00 0.00 0.00 0.00 0.00 0.00 0.00 0.00 0.00 0.00 0.00 0.00 0.00 0.00 0.00 0.00 0.00 0.00 0.00 0.00 0.01 0.01 0.01 0.01 0.01 0.01 0.01 0.01 0.01 0.01 0.01
0.02 0.02 0.02 0.02 0.02 0.02 0.01 0.00 0.00 0.00 0.00 0.00 0.00 0.00 0.00 0.00 0.00 0.00 0.00 0.00 0.00 0.00 0.00 0.00 0.00 0.00 0.00 0.00 0.00 0.00 0.00 0.00 0.00 0.00 0.00 0.00 0.00 0.00 0.01 0.01 0.01 0.01 0.01
0.01 0.01 0.02 0.02 0.03 0.02 0.01 0.00 0.00 0.00 0.00 0.00 0.00 0.00 0.00 0.00 0.00 0.00 0.00 0.00 0.00 0.00 0.00 0.00 0.00 0.00 0.00 0.00 0.01 0.01 0.00 0.00 0.00 0.00 0.00 0.00 0.00 0.00 0.00 0.00 0.00 0.01 0.01
0.00 0.01 0.01 0.01 0.02 0.02 0.02 0.01 0.00 0.00 0.00 0.00 0.00 0.00 0.00 0.00 0.00 0.00 0.00 0.00 0.00 0.00 0.00 0.00 0.00 0.00 0.00 0.00 0.00 0.01 0.01 0.00 0.00 0.00 0.00 0.00 0.00 0.00 0.00 0.00 0.00 0.00 0.00
0.00 0.01 0.01 0.01 0.01 0.02 0.01 0.01 0.00 0.00 0.00 0.00 0.00 0.00 0.00 0.00 0.00 0.00 0.00 0.00 0.00 0.00 0.00 0.00 0.00 0.00 0.00 0.00 0.00 0.00 0.00 0.00 0.00 0.00 0.00 0.00 0.00 0.00 0.00 0.00 0.00 0.00 0.00
0.00 0.00 0.01 0.01 0.01 0.01 0.01 0.01 0.00 0.01 0.00 0.01 0.00 0.00 0.00 0.00 0.00 0.00 0.00 0.00 0.00 0.00 0.00 0.00 0.00 0.00 0.00 0.00 0.00 0.00 0.00 0.00 0.00 0.00 0.00 0.00 0.00 0.00 0.00 0.00 0.00 0.00 0.00
0.00 0.00 0.01 0.01 0.01 0.01 0.01 0.00 0.00 0.00 0.01 0.00 0.00 0.00 0.00 0.00 0.00 0.00 0.00 0.00 0.00 0.00 0.00 0.00 0.00 0.00 0.00 0.00 0.00 0.00 0.00 0.00 0.00 0.00 0.01 0.00 0.00 0.00 0.00 0.00 0.00 0.00 0.01
MSLP
1013.31 1013.45 1013.75 1014.17 1014.65 1015.12 1015.52 1015.82 1016.01 1016.10 1016.15 1016.20 1016.29 1016.43 1016.64 1016.87 1017.08 1017.24 1017.33 1017.34 1017.29 1017.21 1017.14 1017.10 1017.10 1017.13 1017.17 1017.19 1017.16 1017.07 1016.93 1016.76 1016.59 1016.45 1016.37 1016.35 1016.38 1016.43 1016.48 1016.50 1016.47 1016.40 1016.29
1013.04 1013.27 1013.66 1014.18 1014.75 1015.31 1015.78 1016.14 1016.37 1016.49 1016.56 1016.61 1016.70 1016.84 1017.02 1017.23 1017.43 1017.58 1017.65 1017.66 1017.62 1017.56 1017.52 1017.52 1017.55 1017.61 1017.67 1017.70 1017.67 1017.58 1017.43 1017.26 1017.11 1016.99 1016.95 1016.97 1017.04 1017.12 1017.19 1017.21 1017.18 1017.08 1016.94
1012.84 1013.14 1013.61 1014.20 1014.84 1015.46 1016.00 1016.42 1016.70 1016.87 1016.97 1017.05 1017.15 1017.28 1017.44 1017.62 1017.78 1017.89 1017.95 1017.94 1017.91 1017.87 1017.86 1017.89 1017.96 1018.05 1018.13 1018.17 1018.15 1018.06 1017.92 1017.76 1017.63 1017.54 1017.53 1017.59 1017.69 1017.81 1017.90 1017.93 1017.90 1017.80 1017.64
1012.77 1013.11 1013.62 1014.26 1014.94 1015.61 1016.20 1016.66 1017.00 1017.22 1017.37 1017.48 1017.59 1017.72 1017.86 1018.00 1018.12 1018.19 1018.22 1018.20 1018.17 1018.15 1018.17 1018.23 1018.34 1018.46 1018.57 1018.62 1018.61 1018.54 1018.41 1018.28 1018.16 1018.11 1018.13 1018.21 1018.34 1018.48 1018.58 1018.62 1018.60 1018.50 1018.36
1012.84 1013.22 1013.75 1014.40 1015.09 1015.77 1016.38 1016.88 1017.26 1017.53 1017.71 1017.86 1017.99 1018.12 1018.25 1018.36 1018.45 1018.49 1018.49 1018.47 1018.44 1018.44 1018.49 1018.59 1018.73 1018.88 1019.01 1019.08 1019.09 1019.03 1018.93 1018.82 1018.74 1018.71 1018.75 1018.85 1018.98 1019.12 1019.22 1019.26 1019.24 1019.15 1019.02
1013.08 1013.47 1014.00 1014.63 1015.31 1015.98 1016.58 1017.09 1017.48 1017.78 1018.01 1018.19 1018.34 1018.48 1018.60 1018.70 1018.77 1018.80 1018.80 1018.78 1018.77 1018.80 1018.88 1019.01 1019.17 1019.34 1019.48 1019.58 1019.60 1019.57 1019.49 1019.41 1019.36 1019.35 1019.40 1019.50 1019.62 1019.73 1019.81 1019.84 1019.81 1019.73 1019.61
1013.44 1013.84 1014.35 1014.96 1015.60 1016.23 1016.80 1017.30 1017.70 1018.01 1018.26 1018.46 1018.64 1018.80 1018.94 1019.04 1019.12 1019.16 1019.17 1019.18 1019.20 1019.26 1019.37 1019.52 1019.69 1019.87 1020.02 1020.12 1020.15 1020.14 1020.09 1020.04 1020.02 1020.03 1020.08 1020.16 1020.26 1020.34 1020.38 1020.37 1020.31 1020.22 1020.10
1013.86 1014.27 1014.76 1015.33 1015.93 1016.52 1017.06 1017.52 1017.91 1018.23 1018.50 1018.72 1018.92 1019.10 1019.26 1019.40 1019.50 1019.57 1019.63 1019.68 1019.74 1019.83 1019.96 1020.12 1020.29 1020.46 1020.60 1020.69 1020.73 1020.73 1020.71 1020.69 1020.69 1020.71 1020.77 1020.84 1020.89 1020.92 1020.91 1020.85 1020.75 1020.63 1020.50
1014.26 1014.67 1015.16 1015.71 1016.27 1016.82 1017.32 1017.76 1018.14 1018.45 1018.73 1018.97 1019.20 1019.40 1019.60 1019.77 1019.92 1020.04 1020.14 1020.24 1020.35 1020.48 1020.62 1020.78 1020.94 1021.08 1021.19 1021.26 1021.29 1021.30 1021.30 1021.30 1021.33 1021.37 1021.43 1021.48 1021.51 1021.49 1021.42 1021.30 1021.15 1020.99 1020.82
1014.56 1014.99 1015.49 1016.02 1016.57 1017.09 1017.57 1017.99 1018.36 1018.68 1018.96 1019.22 1019.47 1019.71 1019.94 1020.15 1020.35 1020.52 1020.68 1020.83 1020.98 1021.13 1021.29 1021.44 1021.57 1021.68 1021.75 1021.79 1021.80 1021.81 1021.82 1021.85 1021.90 1021.97 1022.04 1022.09 1022.09 1022.03 1021.92 1021.75 1021.54 1021.32 1021.11
1014.72 1015.17 1015.69 1016.23 1016.77 1017.29 1017.77 1018.19 1018.56 1018.89 1019.19 1019.47 1019.74 1020.00 1020.27 1020.52 1020.76 1020.98 1021.18 1021.38 1021.56 1021.74 1021.89 1022.03 1022.13 1022.20 1022.24 1022.25 1022.24 1022.24 1022.27 1022.32 1022.40 1022.49 1022.58 1022.64 1022.63 1022.55 1022.40 1022.19 1021.93 1021.67 1021.41
1014.73 1015.21 1015.75 1016.31 1016.87 1017.40 1017.89 1018.33 1018.72 1019.07 1019.39 1019.69 1019.98 1020.27 1020.56 1020.84 1021.10 1021.36 1021.60 1021.83 1022.04 1022.22 1022.38 1022.51 1022.60 1022.64 1022.64 1022.63 1022.61 1022.61 1022.65 1022.72 1022.83 1022.95 1023.06 1023.13 1023.13 1023.04 1022.88 1022.64 1022.35 1022.05 1021.75
1014.62 1015.14 1015.70 1016.29 1016.87 1017.42 1017.94 1018.40 1018.82 1019.20 1019.55 1019.87 1020.19 1020.50 1020.80 1021.09 1021.37 1021.64 1021.90 1022.15 1022.37 1022.57 1022.74 1022.86 1022.94 1022.98 1022.98 1022.96 1022.95 1022.96 1023.00 1023.10 1023.23 1023.37 1023.50 1023.59 1023.60 1023.52 1023.35 1023.10 1022.80 1022.47 1022.14
1014.45 1014.99 1015.58 1016.18 1016.79 1017.37 1017.91 1018.41 1018.86 1019.28 1019.66 1020.01 1020.35 1020.67 1020.97 1021.27 1021.56 1021.83 1022.09 1022.34 1022.57 1022.78 1022.96 1023.10 1023.19 1023.24 1023.26 1023.27 1023.28 1023.31 1023.37 1023.49 1023.63 1023.79 1023.93 1024.03 1024.05 1023.98 1023.81 1023.57 1023.26 1022.92 1022.58
1014.28 1014.83 1015.44 1016.05 1016.67 1017.27 1017.84 1018.37 1018.86 1019.31 1019.72 1020.10 1020.45 1020.79 1021.10 1021.39 1021.67 1021.94 1022.19 1022.44 1022.67 1022.89 1023.08 1023.25 1023.38 1023.47 1023.53 1023.58 1023.63 1023.69 1023.79 1023.92 1024.07 1024.23 1024.38 1024.47 1024.49 1024.43 1024.27 1024.03 1023.73 1023.39 1023.04
1014.13 1014.70 1015.31 1015.93 1016.55 1017.16 1017.75 1018.30 1018.81 1019.29 1019.73 1020.14 1020.52 1020.87 1021.18 1021.48 1021.75 1022.00 1022.25 1022.49 1022.72 1022.94 1023.16 1023.35 1023.53 1023.67 1023.80 1023.90 1024.01 1024.12 1024.24 1024.39 1024.54 1024.70 1024.82 1024.90 1024.92 1024.85 1024.69 1024.47 1024.18 1023.85 1023.49
1014.01 1014.59 1015.20 1015.82 1016.44 1017.05 1017.64 1018.21 1018.74 1019.24 1019.71 1020.15 1020.55 1020.91 1021.24 1021.54 1021.82 1022.07 1022.31 1022.54 1022.76 1022.99 1023.22 1023.44 1023.65 1023.86 1024.04 1024.21 1024.38 1024.53 1024.69 1024.85 1025.00 1025.14 1025.24 1025.30 1025.29 1025.22 1025.07 1024.85 1024.57 1024.25 1023.91
1013.87 1014.47 1015.07 1015.69 1016.31 1016.92 1017.52 1018.09 1018.64 1019.16 1019.65 1020.11 1020.53 1020.92 1021.28 1021.60 1021.88 1022.14 1022.38 1022.61 1022.83 1023.05 1023.28 1023.52 1023.76 1024.00 1024.24 1024.46 1024.68 1024.88 1025.06 1025.23 1025.38 1025.50 1025.58 1025.61 1025.59 1025.51 1025.36 1025.16 1024.90 1024.60 1024.25
1013.64 1014.25 1014.87 1015.50 1016.12 1016.74 1017.35 1017.93 1018.49 1019.02 1019.52 1020.00 1020.45 1020.87 1021.26 1021.61 1021.93 1022.21 1022.47 1022.70 1022.92 1023.13 1023.35 1023.59 1023.83 1024.08 1024.34 1024.60 1024.84 1025.08 1025.28 1025.47 1025.61 1025.72 1025.78 1025.80 1025.77 1025.69 1025.55 1025.37 1025.14 1024.86 1024.53
1013.22 1013.86 1014.50 1015.16 1015.81 1016.45 1017.07 1017.67 1018.24 1018.79 1019.30 1019.79 1020.26 1020.72 1021.14 1021.54 1021.91 1022.24 1022.53 1022.78 1023.00 1023.21 1023.41 1023.62 1023.84 1024.07 1024.32 1024.58 1024.84 1025.09 1025.31 1025.50 1025.65 1025.76 1025.82 1025.84 1025.81 1025.75 1025.64 1025.49 1025.29 1025.05 1024.74
1012.56 1013.23 1013.91 1014.61 1015.31 1015.99 1016.65 1017.28 1017.87 1018.42 1018.94 1019.45 1019.94 1020.42 1020.89 1021.35 1021.78 1022.17 1022.51 1022.80 1023.05 1023.25 1023.43 1023.60 1023.77 1023.97 1024.19 1024.42 1024.67 1024.92 1025.14 1025.34 1025.50 1025.62 1025.69 1025.73 1025.72 1025.69 1025.62 1025.52 1025.38 1025.17 1024.90
1011.62 1012.32 1013.06 1013.81 1014.58 1015.32 1016.04 1016.71 1017.32 1017.89 1018.42 1018.93 1019.43 1019.94 1020.46 1020.98 1021.49 1021.96 1022.38 1022.73 1023.01 1023.23 1023.39 1023.53 1023.65 1023.80 1023.96 1024.16 1024.38 1024.61 1024.83 1025.03 1025.20 1025.34 1025.44 1025.50 1025.53 1025.54 1025.53 1025.48 1025.40 1025.25 1025.02
1010.45 1011.17 1011.96 1012.78 1013.61 1014.43 1015.21 1015.94 1016.59 1017.18 1017.72 1018.23 1018.74 1019.28 1019.84 1020.43 1021.01 1021.58 1022.09 1022.52 1022.86 1023.11 1023.29 1023.40 1023.50 1023.59 1023.71 1023.86 1024.04 1024.25 1024.46 1024.66 1024.84 1025.00 1025.12 1025.22 1025.29 1025.35 1025.39 1025.40 1025.37 1025.28 1025.10
1009.12 1009.85 1010.66 1011.54 1012.44 1013.34 1014.20 1014.98 1015.68 1016.29 1016.84 1017.36 1017.88 1018.44 1019.04 1019.68 1020.35 1021.01 1021.63 1022.16 1022.59 1022.90 1023.11 1023.24 1023.33 1023.39 1023.48 1023.59 1023.74 1023.93 1024.13 1024.33 1024.52 1024.69 1024.83 1024.95 1025.06 1025.15 1025.24 1025.30 1025.32 1025.28 1025.14
1007.76 1008.47 1009.28 1010.18 1011.13 1012.10 1013.02 1013.87 1014.62 1015.27 1015.84 1016.36 1016.89 1017.46 1018.09 1018.79 1019.53 1020.29 1021.01 1021.65 1022.19 1022.59 1022.87 1023.04 1023.15 1023.23 1023.30 1023.41 1023.55 1023.72 1023.92 1024.12 1024.31 1024.48 1024.63 1024.76 1024.88 1024.99 1025.10 1025.19 1025.25 1025.24 1025.14
1006.51 1007.14 1007.90 1008.79 1009.76 1010.76 1011.75 1012.66 1013.46 1014.15 1014.75 1015.29 1015.83 1016.41 1017.07 1017.80 1018.61 1019.45 1020.27 1021.02 1021.67 1022.17 1022.55 1022.80 1022.97 1023.09 1023.19 1023.32 1023.47 1023.66 1023.86 1024.06 1024.25 1024.42 1024.56 1024.68 1024.79 1024.90 1025.00 1025.10 1025.16 1025.17 1025.08
Thickness
5759 5758 5752 5751 5750 5749 5748 5747 5747 5746 5745 5745 5744 5742 5742 5740 5739 5738 5737 5737 5736 5735 5735 5734 5733 5732 5731 5730 5730 5729 5728 5727 5726 5726 5725 5725 5724 5724 5723 5723 5723 5724 5721
5759 5755 5749 5748 5747 5745 5744 5743 5743 5742 5741 5740 5739 5738 5737 5736 5735 5734 5733 5732 5732 5731 5730 5729 5728 5727 5726 5725 5724 5724 5723 5722 5721 5721 5721 5720 5719 5718 5718 5718 5718 5718 5716
5756 5752 5747 5744 5743 5742 5741 5739 5738 5737 5737 5736 5735 5734 5733 5732 5731 5730 5729 5728 5727 5726 5725 5724 5723 5722 5721 5720 5719 5718 5718 5717 5716 5716 5717 5717 5715 5713 5713 5712 5712 5712 5711
5751 5748 5744 5740 5739 5738 5736 5735 5734 5733 5732 5731 5730 5729 5728 5727 5726 5725 5724 5723 5722 5721 5720 5719 5718 5717 5716 5715 5714 5713 5712 5712 5711 5712 5713 5712 5711 5708 5707 5707 5706 5706 5705
5746 5743 5739 5736 5734 5733 5732 5730 5729 5728 5727 5726 5725 5724 5723 5722 5721 5720 5719 5718 5717 5716 5715 5714 5713 5712 5711 5710 5709 5708 5707 5706 5706 5708 5707 5706 5705 5703 5702 5701 5701 5700 5700
5740 5738 5733 5731 5729 5728 5727 5725 5724 5723 5722 5721 5719 5718 5718 5717 5716 5715 5714 5713 5712 5711 5710 5709 5708 5707 5706 5705 5704 5703 5702 5701 5703 5703 5702 5701 5699 5697 5696 5696 5695 5695 5695
5734 5732 5728 5725 5723 5722 5721 5720 5719 5717 5716 5715 5714 5713 5712 5711 5710 5709 5708 5707 5707 5706 5705 5704 5702 5701 5700 5699 5698 5697 5696 5696 5698 5697 5696 5695 5693 5691 5691 5690 5690 5689 5689
5728 5726 5722 5718 5717 5716 5715 5714 5713 5712 5710 5709 5708 5707 5706 5705 5705 5704 5703 5702 5701 5700 5699 5698 5697 5696 5695 5694 5693 5692 5691 5691 5692 5692 5690 5689 5686 5685 5685 5685 5684 5684 5683
5721 5720 5717 5714 5711 5710 5708 5707 5706 5705 5704 5703 5702 5701 5700 5699 5698 5697 5696 5696 5695 5694 5693 5692 5690 5689 5689 5688 5686 5686 5685 5685 5687 5686 5685 5683 5680 5680 5680 5679 5678 5678 5677
5714 5714 5712 5709 5707 5705 5703 5701 5700 5699 5698 5697 5696 5695 5694 5693 5692 5691 5690 5689 5688 5687 5686 5685 5684 5683 5682 5681 5680 5680 5680 5680 5681 5680 5679 5676 5674 5674 5674 5673 5672 5671 5671
5706 5707 5706 5704 5702 5700 5698 5695 5693 5692 5691 5690 5689 5688 5688 5687 5686 5685 5683 5682 5681 5680 5680 5678 5677 5677 5676 5675 5674 5674 5675 5676 5675 5674 5671 5669 5668 5668 5667 5666 5666 5665 5664
5699 5699 5699 5698 5696 5694 5692 5689 5688 5686 5685 5685 5684 5682 5682 5681 5680 5678 5676 5675 5674 5674 5673 5672 5671 5671 5671 5671 5670 5669 5670 5669 5669 5667 5664 5662 5661 5661 5661 5660 5659 5658 5657
5695 5693 5692 5691 5689 5688 5686 5684 5682 5680 5679 5678 5677 5676 5675 5674 5673 5672 5671 5670 5669 5668 5668 5667 5667 5666 5666 5665 5664 5664 5663 5663 5662 5660 5657 5655 5654 5654 5653 5653 5652 5651 5650
5688 5686 5685 5684 5683 5682 5680 5678 5677 5675 5673 5672 5671 5670 5670 5668 5667 5666 5665 5664 5663 5663 5662 5662 5661 5660 5660 5659 5658 5657 5656 5656 5654 5652 5650 5648 5646 5646 5646 5645 5645 5644 5643
5681 5680 5679 5677 5676 5675 5674 5672 5671 5669 5668 5666 5664 5663 5663 5662 5661 5660 5659 5657 5657 5656 5656 5655 5655 5654 5653 5652 5651 5651 5650 5648 5647 5645 5643 5640 5639 5638 5638 5637 5636 5636 5635
5676 5674 5672 5671 5670 5668 5667 5666 5664 5662 5660 5660 5658 5657 5656 5655 5655 5654 5653 5651 5651 5650 5649 5649 5649 5648 5647 5646 5645 5644 5643 5641 5640 5638 5636 5634 5632 5630 5629 5628 5628 5627 5626
5670 5668 5666 5664 5663 5662 5660 5659 5657 5655 5654 5653 5651 5650 5649 5649 5648 5647 5646 5645 5644 5643 5642 5642 5642 5641 5640 5639 5638 5637 5636 5634 5633 5631 5629 5627 5626 5623 5621 5619 5618 5617 5617
5664 5662 5659 5658 5657 5655 5653 5651 5650 5649 5648 5646 5645 5644 5642 5642 5641 5640 5639 5638 5637 5636 5636 5635 5635 5634 5634 5633 5632 5630 5629 5627 5626 5624 5622 5619 5617 5615 5613 5611 5609 5607 5606
5658 5656 5653 5652 5650 5649 5646 5644 5642 5641 5640 5639 5638 5637 5635 5634 5634 5634 5632 5630 5629 5629 5628 5627 5627 5627 5626 5625 5624 5623 5622 5620 5618 5616 5614 5611 5608 5606 5605 5603 5600 5598 5597
5650 5649 5647 5645 5643 5641 5639 5637 5635 5634 5633 5632 5631 5630 5629 5627 5627 5626 5625 5623 5622 5622 5621 5620 5619 5618 5617 5616 5616 5616 5615 5614 5611 5609 5606 5603 5600 5598 5595 5594 5592 5590 5587
5642 5642 5641 5639 5637 5635 5634 5633 5631 5629 5627 5625 5623 5622 5621 5620 5619 5618 5617 5616 5615 5615 5613 5613 5612 5610 5609 5608 5609 5610 5610 5607 5605 5601 5598 5595 5592 5589 5586 5584 5582 5580 5578
5636 5636 5635 5634 5632 5631 5630 5628 5626 5623 5620 5618 5616 5615 5614 5613 5612 5611 5610 5609 5607 5606 5605 5604 5603 5602 5600 5598 5598 5601 5603 5603 5599 5594 5590 5586 5583 5580 5577 5574 5572 5570 5568
5631 5631 5630 5629 5627 5625 5623 5621 5618 5615 5613 5611 5609 5608 5606 5605 5604 5603 5602 5601 5600 5599 5597 5595 5594 5593 5591 5588 5586 5586 5588 5591 5589 5588 5583 5578 5574 5570 5567 5565 5562 5560 5557
5625 5624 5624 5622 5621 5619 5618 5616 5616 5615 5612 5609 5605 5602 5600 5598 5597 5595 5594 5593 5592 5590 5589 5587 5585 5583 5582 5580 5577 5573 5571 5569 5569 5575 5576 5570 5565 5561 5557 5555 5553 5550 5547
5618 5617 5617 5616 5614 5613 5612 5611 5610 5609 5606 5602 5598 5596 5593 5591 5589 5587 5586 5585 5583 5582 5580 5578 5575 5574 5572 5570 5568 5564 5561 5558 5556 5556 5562 5562 5558 5553 5548 5545 5542 5540 5537
5610 5609 5609 5609 5608 5606 5605 5604 5603 5602 5599 5596 5593 5590 5587 5585 5582 5580 5578 5577 5575 5573 5571 5568 5566 5564 5562 5560 5557 5554 5551 5548 5546 5543 5545 5547 5547 5545 5540 5536 5533 5530 5526